Race Results for
Copperopolis Road Race
Milton, CA
(Event Information)
View By:
Road Race on 04/11/2009

Note: Ranking points are NOT upgrade points. An explanation of ranking points can be found here.


Men - Cat4/5 (B) - Master - 35-99

 Place Points NameCity, StateTime USAC #BibTeam
1Jeff Chen-Harding   00:00:00.00  605 Dolce Vita Cycling
2494.07Matt Wocasek   Santa Cruz, CA00:00:00.00 38747  647 Team Bicycle Trip
3497.17Christopher Gaston   Davis, CA00:00:00.00 240262  618 NA
4500.26Marty Panos   Moraga, CA00:00:00.00 264154  631 Taleo Racing
5503.36Edward Lund   Fresno, CA00:00:00.00 276566  629 Steven's Bicycles Racing
6506.45Alex Chiappetta   Berkeley, CA00:00:00.00 60393  606 SF Sport & Spine PT Racing
7509.55David Colyer   Novato, CA00:00:00.00 259783  607 Taleo Racing
8512.64James Porter   Palo Alto, CA00:00:00.00 238708  634 Webcor/ Alto Velo
9515.74Scott Cox   El Sobrante, CA00:00:00.00 288732  610 SF Sport & Spine PT Racing
10518.83Christopher Coble   Concord, CA00:00:00.00 254754  649 Taleo Racing
11521.92Adrian Tieslau   Kings Beach, CA00:00:00.00 271946  643 NA
12525.02Robb Wolf   Reno, NV00:00:00.00 257141  648 Bike Warehouse
13528.11David Barrett   Cedar Ridge, CA00:00:00.00 129270  603 SERT/Sho-Air
14Allan Sherlock   00:00:00.00  641 Roaring Mouse
15534.30Tim Petersen   Alamo00:00:00.00 204058  632 sf sport and spine pt racing
16brian endicott   00:00:00.00  613 brian endicott
17540.49Donald Ringer   Tracy, CA00:00:00.00 254956  637 Stockton Bike Club
18543.58Myron Reyes   San Ramon, CA00:00:00.00 141386  636 SLO Nexus- Gym One
19Michael Arreguin   00:00:00.00  601 Davis Bike Club
20549.77Chris Gaffney   San Jose, CA00:00:00.00 286526  617 Webcor/Alto Velo
21Steve Thomsen   00:00:00.00  642 Great Basin Imaging
22555.96Gary Land   Santa Rosa, CA00:00:00.00 181093  626 Team Kinetic Cycles
23Jeff Durban   00:00:00.00  611 Forward Motion Race Club
24562.15Ludin Ruano   Livermore, CA00:00:00.00 260831  638 VSRT/LivermoreCyclery
25stephen Hughes   00:00:00.00  621 Stephen Hughes
26568.34Jonathan Hunt   San Francisco, CA00:00:00.00 260123  622 Freewheel Bike Shop
27571.43Jason Eiserich   Davis, CA00:00:00.00 256545  612 Davis Bike Club
28eric hess   00:00:00.00  620 unattached
29Paul Kempler   00:00:00.00  625 Reno Wheelmen
30Peter Aughney   00:00:00.00  602 Taleo
31583.81Jim Cordano   Sacramento, CA00:00:00.00 247724  609 Sacramento Golden Wheelmen
32jeff watson   00:00:00.00  645 ride for a reason
33590.00Russell Petrosky   Gardnerville, NV00:00:00.00 220923  633 Great Basin Imaging Cycling Te
DNSBrian Agnell   Sacramento, CA00:00:00.00 180563   Rio Strada Racing
DNSGregory Bennett   San Francisco, CA00:00:00.00 205105   Dolce Vita Cycling
DNSMichael Coppolino   San Francisco, CA00:00:00.00 237772   Unattached
DNSRob Equi   00:00:00.00   SGW
DNSMatthew Esselstrom   Modesto, CA00:00:00.00 277510   Stanislaus County Bicycle Club
DNSBarry Freifeld   Oakland, CA00:00:00.00 51650   SF Sport & Spine Pt Racing
DNSBarrett Henson   San Luis Obispo, CA00:00:00.00 15881   SLO Nexus - Gym One
DNSArthur Jones   San Francisco, CA00:00:00.00 272999   Unattached
DNSFrederic Lequient   San Francisco, CA00:00:00.00 199591   Taleo Racing
DNSDouglas Loper   Kingsburg, CA00:00:00.00 269575   Vapor Racing
DNSChris McCrary   00:00:00.00   Forward Motion Race Club
DNSLouis Sandoval   San Pablo, CA00:00:00.00 50989   Berkeley Bicycle Club
DNSMark Sheffield   Carmichael, CA00:00:00.00 271298   BEER
DNSJohnnie Walker   Santa Rosa, CA00:00:00.00 235083   Fighten Bobas
DNSBill Westbrock   San Rafael, CA00:00:00.00 287303   Thirsty Bear/CVC/Barlata/3Ring
DNSLuiggi Zuniga   00:00:00.00   Kinetic-Specialized
DNPFrank Kalcic   Sunnyvale, CA00:00:00.00 272461  624 HRS /Rock Lobster
DNPBrian Priddin   El Dorado, CA00:00:00.00 178247  635 NA

Men - Cat4/5 (B) - Master - 45-99

 Place Points NameCity, StateTime USAC #BibTeam
1465.42Bruce Garrett   Palo Alto, CA00:00:00.00 273888  664 Webcor / Alto Velo
2miles wadsworth   00:00:00.00  695 Team Bicycle Trip
3471.35Rick Reynolds   Truckee, CA00:00:00.00 287475  684 Cyclepaths/Wild Cherries Racin
4474.32Michael Beers   Clovis, CA00:00:00.00 274395  655 Vapor Racing
5Brian Gates   00:00:00.00  538 ETS Cycling Club
6480.25Andy Welling   Santa Rosa, CA00:00:00.00 238307  696 Fightin Bobas
7483.22Lee Millon   Winters, CA00:00:00.00 254073  678 Davis Bike Club
8486.18Joe Platin   Santa Cruz, CA00:00:00.00 256834  682 Team Bicycle Trip
9Jerry Roach   00:00:00.00  685 Fightn' Bobas
10492.12Dane Grant   San Francisco, CA00:00:00.00 171862  665 Team Roaring Mouse
11495.08Edward Lix   Folsom, CA00:00:00.00 270622  672 VOS-Cycles Gladiator
12498.05Frederick Martin   Oakland, CA00:00:00.00 255689  673 Kaiser Permanente / Team Oakla
13501.01Daryl Nelson   San Rafael, CA00:00:00.00 131311  679 Taleo Racing
14503.98Kevin ODonnell   Greenbrae, CA00:00:00.00 242028  680 ZTeam
15506.95scott wienker   Davis, CA00:00:00.00 290904  698 DBC
16509.91Robert Martinez   Lodi, CA00:00:00.00 22761  675 IC3
17512.88Brian Pollaccia   Ukiah, CA00:00:00.00 139990  683 Fightin' Bobas
18515.85Roger Von Rotz   Modesto, CA00:00:00.00 240458  694 VSRT/Livermore Cyclery
19518.81John Metzger   Shingle Springs, CA00:00:00.00 166381  677 Team Bicycles Plus/Sierra Neva
20521.78Matthew Werner   Santa Cruz, CA00:00:00.00 271509  697 Team Bicycle Trip
21mike nissen   00:00:00.00  542 NA
22527.71Elmar Stefke   Berkeley, CA00:00:00.00 271320  547 Touchstone Climbing
23Tim Hutchinson   00:00:00.00  670 Redding Velo
24533.64James Rosberg   San Francisco, CA00:00:00.00 215977  686 Team Roaring Mouse
25536.61Alex Blease   San Jose, CA00:00:00.00 155963  657 TBS Racing Team
26539.57Matthew Gregory   Escalon, CA00:00:00.00 250497  666 InfoVista Cycling Team
27542.54Walter Fant   Los Gatos, CA00:00:00.00 91947  537 NA
28Jim Elam   00:00:00.00  661 Stocton Bike Club
29Dave Ruby   00:00:00.00  545 Rockets
30Chuck Ojeda   00:00:00.00  543 NA
31gary biehl   00:00:00.00  656 NA
32557.37Will Harris   Sacramento, CA00:00:00.00 226116  667 Touchstone Cycling
33560.34Mark Switters   Folsom, CA00:00:00.00 59052  691 Sacramento Golden Wheelmen
34563.30Christopher Cioni   Sacramento, CA00:00:00.00 66414  535 Sacramento Golden Wheelmen
35566.27Gilbert Tarin   Knightsen, CA00:00:00.00 252241  692 NA
36569.24Benjamin Weekes   Oakland, CA00:00:00.00 109383  548 NA
37572.20Paul Vlasveld   San Jose, CA00:00:00.00 271353  693 SJBC/SugarCRM
38Chuck Spiteri   00:00:00.00  546 Peninsula Velo/Pomodoro
39578.14Michael Zafer   Martinez, CA00:00:00.00 265254  549 
40581.10Jeff Mittner   Folsom, CA00:00:00.00 286671  832 Team Bicycles Plus/Sierra Neva
41584.07Philippe Azoulay   San Jose, CA00:00:00.00 207662  652 SJBC/SugarCRM
42587.03Derrick Hemingway   San Jose, CA00:00:00.00 259077  669 SJBC/SugarCRM
43590.00Greg Prior   San Jose, CA00:00:00.00 287129  544 SJBC/SugarCRM
DNSPaule Bates   Santa Cruz, CA00:00:00.00 112364   Team Roaring Mouse
DNSDouglas Bauer   San Francisco, CA00:00:00.00 197821   GS Lombardi Sports
DNSCarl Butler   Livermore, CA00:00:00.00 195548   Valley Spokesmen Racing Team
DNSEdward Condit   Redding, CA00:00:00.00 187802   NA
DNSMark Gardner   Lathrop, CA00:00:00.00 258953   goldenchain
DNSDonnie Hawkins   00:00:00.00   Golden Chain Cyclists
DNSChristopher Kolm   Moraga, CA00:00:00.00 254578   Taleo Racing
DNSScott Martin   Scotts Valley, CA00:00:00.00 22722   Bike Trip
DNSBrad McKenzie   San Rafael, CA00:00:00.00 23629   Thirsty Bear/CVC/Barlata/3 Rin
DNSRobert Palassou   Pleasanton, CA00:00:00.00 288637   VSRT/Livermore Cyclery
DNSCharles Salmon   Palo Alto, CA00:00:00.00 196388   NA
DNSDan Scrivner   Los Altos, CA00:00:00.00 78689   Six Fifty Racing
DNSRandall Stafford   Palo Alto, CA00:00:00.00 92849   Alto Velo Racing Club
DNSDean Woerner   San Francisco, CA00:00:00.00 203064   The Olympic Club
DNSBob Hasenick   Santa Rosa, CA00:00:00.00 272219   Taleo Racing
DNSThomas Luttrell   San Francisco, CA00:00:00.00 235966   Taleo
DNPGlenn Drummond   Walnut Creek, CA00:00:00.00 274369  536 
DNPJoe McCrummen   00:00:00.00  541 NONE
DNPGregory Colyer   Hercules, CA00:00:00.00 254007  659 Taleo Racing
DNPMark Gardner   Lathrop, CA00:00:00.00 258953  662 goldenchain
DNPThomas Salmon   Mountain View, CA00:00:00.00 260563  688 NA

Men - Cat4/5 (A) - Master - 35-99

 Place Points NameCity, StateTime USAC #BibTeam
1473.63Warren Woodbury   San Antonio, TX00:00:00.00 286442  197 IC3
2477.27David Jones   Danville, CA00:00:00.00 277251  168 Wells Fargo Racing Team
3480.90Arthur Jones   San Francisco, CA00:00:00.00 272999  167 Unattached
4484.54Kenneth Mejica   San Francisco, CA00:00:00.00 254913  173 Taleo Racing
5488.18Gregory Coleman   San Francisco, CA00:00:00.00 195949  158 ZteaM
6491.81Kevin Threm   Aptos, CA00:00:00.00 255687  192 NA
7495.45Jay Parkhill   San Francisco, CA00:00:00.00 27283  181 Team Roaring Mouse
8499.09Anthony Low   Lafayette, CA00:00:00.00 265991  172 Taleo Racing
9502.72Jerrold Oser   Bishop, CA00:00:00.00 260145  180 Eastside Velo
10506.36Tom Vanderheiden   Pleasant Hill, CA00:00:00.00 263253  193 Wells Fargo Racing Team
11510.00Phillip Smith   El Dorado Hills, CA00:00:00.00 33251  188 Bicycle Planet
12513.63Richard Hill   Campbell, CA00:00:00.00 267729  165 SugarCRM
13517.27Nick Fitton   Livermore, CA00:00:00.00 254446  161 Wells Fargo Racing Team
14520.91Chris Becker   Orinda, CA00:00:00.00 287692  152 Taleo Racing
15524.54Russell Gauthier   Pleasanton, CA00:00:00.00 223902  163 IC3
16528.18Dan Goldsmith   Grass Valley, CA00:00:00.00 258865  164 Sierra Express-Sho Air
17531.82Jeff Mitchell   Folsom, CA00:00:00.00 101551  174 Rio Strada Racing
18535.45Denin Sahovic   Sunnyvale, CA00:00:00.00 271126  185 SugarCRM
19539.09Chris Parod   Mather, CA00:00:00.00 270992  182 Team Bicycles Plus/Sierra Neva
20542.72Terence Hundemer   Nevada City, CA00:00:00.00 219800  166 Sierra Express/Sho-Air
21546.36David Pedersen   Washington, DC00:00:00.00 141362  183 Altezza 40 Racing
22550.00Douglas Aldrich   San Jose, CA00:00:00.00 245255  150 SJBC/SugarCRM
23553.63Tom Taylor   San Francisco, CA00:00:00.00 129703  191 team roaring mouse
24557.27Timothy Zsoka   Folsom, CA00:00:00.00 239889  199 Team Bicycles Plus/Sierra Neva
25560.91Jarrod Wyrick   Granite Bay, CA00:00:00.00 109262  198 Team Bicycles Plus/Sierra Neva
26564.54Steve Ward   Folsom, CA00:00:00.00 286653  194 Team Bicycles Plus/Sierra Neva
27568.18Anthony Eng   El Cerrito, CA00:00:00.00 245065  160 Kaiser Permanente / Team Oakla
28571.82Oswald Cousins   Sf, CA00:00:00.00 285298  159 Dolce Vita
29575.45Jesse Baliscao   Aptos, CA00:00:00.00 271991  151 BSA RACING
30579.09Herman Shum   Dublin, CA00:00:00.00 286381  187 IC3
31582.73Ed Lai   Oakland, CA00:00:00.00 204450  171 Kaiser Permanente / Team Oakla
32586.36Michael Kopp   San Francisco, CA00:00:00.00 286893  169 Taleo Racing
33590.00Scott Morrison   Fairfield, CA00:00:00.00 234970  175 Precision Bicycles/Team Precis
DNSMichael Broz   Sacramento, CA00:00:00.00 41833   Davis Bike Club
DNSDavid Brunetti   Modesto, CA00:00:00.00 5236   NA
DNSJames Camino   Lagunitas, CA00:00:00.00 156721   WTB
DNSMichael Campbell   Berkeley, CA00:00:00.00 231290   Taleo Racing
DNSAndrew Frey   Pleasanton, CA00:00:00.00 49971   ICCC
DNSDavid Morton   Los Gatos, CA00:00:00.00 243225   SJBC/SugarCRM
DNSErik Muller   00:00:00.00   The FruitGuys
DNSKristofer Muller   00:00:00.00   Team FruitGuys
DNSSteve Offerman   Sacramento, CA00:00:00.00 81992   Rio Strada Racing
DNSShane Rogers   Folsom, CA00:00:00.00 286872   Team Bicycles Plus / Sierra Ne
DNSJim Sallee   San Francisco, CA00:00:00.00 88987   NA
DNSDenis Solan   Fairfax, CA00:00:00.00 285468   DFL
DNSChris Soukup   Sunnyvale, CA00:00:00.00 225570   SJBC/SugarCRM
DNSGeoff Wilcox   Richmond , CA00:00:00.00 253588   Altezza 40
DNSSteven Woo   Los Altos, CA00:00:00.00 38840   SugarCRM
DNPMike Brunetti   Escalon, CA00:00:00.00 273437  155 NA
DNPEthan Kutzscher   Moraga, CA00:00:00.00 270460  170 Wells Fargo Racing Team

Men - Cat4/5 (A) - Master - 45-99

 Place Points NameCity, StateTime USAC #BibTeam
1464.20Allen House   Pleasanton, CA00:00:00.00 219153  814 VSRT/Livermore Cyclery
2466.85Rusk Whipps   Petaluma, CA00:00:00.00 266460  848 Sert/Sho-Air
3469.49John Hansen   Danville, CA00:00:00.00 113380  810 wells fargo racing team
4472.14James Torrence   Hayward, CA00:00:00.00 55200  845 Eden Bicycles
5474.78Robert Napieralski   Springville, CA00:00:00.00 271499  834 Yokohl Ranch/SSC Racing Team
6477.43Erik Salander   Belmont, CA00:00:00.00 195443  840 Peninsula Velo/Pomodoro
7480.07marc hamlin   Hathaway Pines, CA00:00:00.00 275127  809 Pacific State Bank Cycling Tea
8482.72John Houston   Pleasanton, CA00:00:00.00 255975  816 IC3
9485.36Rick Kalb   Nevada City, CA00:00:00.00 188952  851 Sierra Express/TONC
10488.01Timothy Locke   Alamo, CA00:00:00.00 204285  823 Taleo Racing
11490.65Michael Baushke   San Francisco, CA00:00:00.00 252230  800 Sycip/Schwalbe
12Doug Houston   00:00:00.00  815 Victory Velo
13495.94Eric LaFranchi   Calistoga, CA00:00:00.00 199575  853 ZteaM Cycling
14498.59Steve Cooke   Carson City, NV00:00:00.00 286931  803 NA
15501.23Richard Gelsi-Medeot   Novato, CA00:00:00.00 225191  808 wtb racing
16503.88Gregg Marioni   San Anselmo, CA00:00:00.00 22517  827 ZteaM Cycling
17506.52William Buckingham   Ross, CA00:00:00.00 127538  802 Above Category
18509.17Randy Floyd   Newcastle, CA00:00:00.00 90079  804 
19Russell McCrary   00:00:00.00  830 ZteaM Cycling
20Jeff Taylor   00:00:00.00  844 Above Category
21517.11Mark Perry   Auburn, CA00:00:00.00 288400  836 NA
22519.75Thomas Fox   Stinson Beach, CA00:00:00.00 220351  805 Above Category Racing
23522.40Brian Joder   Orangevale, CA00:00:00.00 137411  819 NA
24525.04Shane Huntoon   Livermore, CA00:00:00.00 17200  817 International Christian Cyclin
25527.69Mark Mastoras   San Bruno, CA00:00:00.00 117797  829 Sportgenic Squadra Ovest
26530.33charles magnuson   Sacramento, CA00:00:00.00 286425  826 Davis Bike Club
27532.98Gilbert Martinez   Waxahachie, TX00:00:00.00 181301  828 RIO STRADA RACING
28535.62Jerome Heiberger   Grass Valley, CA00:00:00.00 15679  813 Sierra Express/SHO-AIR
29538.27Randy Volkmar   S Lake Tahoe, CA00:00:00.00 36779  846 Garrison Institutional
30540.91Bradford Hasse   El Dorado Hills, CA00:00:00.00 236804  811 Body Concepts
31543.56Thomas Luttrell   San Francisco, CA00:00:00.00 235966  825 Taleo
32546.20Blair Peterson   Mill Valley, CA00:00:00.00 118422  837 Above Category Racing
33Peter Sobrero   00:00:00.00  842 Above Catagory
34551.49Mark Knutson   Capitola, CA00:00:00.00 267007  852 BSA Racing
35554.14Nelson Frink   Sutter, CA00:00:00.00 268821  806 Davis Bike Club
36556.78Edward Price   Aptos, CA00:00:00.00 84614  838 Team Bicycle Trip
37559.43Will Parks   Oakland00:00:00.00 274034  835 none
38562.07Erim Taser   Lodi, CA00:00:00.00 205116  843 Pacific State Bank
39564.72Steve Wetzel   Folsom, CA00:00:00.00 287877  847 Team Bicycles Plus/Sierra Neva
40567.36John Jeha   Alamo, CA00:00:00.00 254760  850 Taleo Racing
41570.01William Brieger   Sacramento, CA00:00:00.00 124856  801 Davis Bike Club
42572.66Robert Montague   Aptos, CA00:00:00.00 276007  833 Team Bicycle Trip
43Richard Siegel   00:00:00.00  841 Above Category Racing
DNSdavid gagnon   Salinas, CA00:00:00.00 250142   Don Chapin/ Monterey Bay Racin
DNSRuss Haswell   Woodbridge, CA00:00:00.00 225590   Delta Velo
DNSDouglas McKenzie   Santa Rosa, CA00:00:00.00 201588   Fightin' Bobas
DNSPatrick Roe   Reno, NV00:00:00.00 273295   Intermountain Orthopaedics/Los
DNPPatrick Logan   San Ramon, CA00:00:00.00 242583  824 Third Pillar

Men - Cat 4 (B)

 Place Points NameCity, StateTime USAC #BibTeam
1524.40Calvin Spivey   Oakland, CA00:00:00.00 220718  798 Berkeley Bike Club
2557.20Maxime St Pierre Ostrander   Berkeley, CA00:00:00.00 240280  797 Whole Athelete
3KENNY WHITE   00:00:00.00  799 NA
DNSNicholas Hack   00:00:00.00  796 Team Roaring Mouse

Men - Cat 4 (A)

 Place Points NameCity, StateTime USAC #BibTeam
1Alexander Blease   00:00:00.00  412 Chico Corsa
2468.29Monte Boyle   Simms, MT00:00:00.00 218669  415 Team Clover
3470.82John Bennett   El Cerrito, CA00:00:00.00 237917  410 Whole Athlete
4473.36Brian Zimny   Sacramento, CA00:00:00.00 61117  499 Team City Sacramento
5475.89Bill Laddish   Castro Valley, CA00:00:00.00 20105  455 Berkeley Bike Club
6478.43Alvaro Mosquera   Sacramento, CA00:00:00.00 236809  466 Berkeley Bicycle Club (BBC)
7Philip Hynes   00:00:00.00  448 NA
8483.50Paul Taylor   Brentwood, CA00:00:00.00 207281  488 Metromint Cycling
9486.04Jim Riley   Oakalnd, CA00:00:00.00 287039  478 Godspeed Courier
10488.57Scot Ferguson   Reno, NV00:00:00.00 195008  429 Reno Wheelmen
11491.11Kevin White   San Francisco, CA00:00:00.00 256199  495 Godspeed Courier
12devin avery   00:00:00.00  404 BEER
13496.18Paul Tindal   South Lake Tahoe, CA00:00:00.00 153758  490 NA
14498.71Ryan Price   Santa Rosa, CA00:00:00.00 267121  474 NA
15501.25Sam Bassetti   San Geronimo, CA00:00:00.00 237712  408 Team Swift
16503.79Francisco Sanchez Jr   Stockton, CA00:00:00.00 270261  480 DeltaVelo
17506.32Shawn Yackle   Brooklyn, NY00:00:00.00 237175  498 Godspeed Courier
18508.86Scott Leland   Reno, NV00:00:00.00 179817  457 Great Basin Imaging
19511.39Nate Geoffrion   Petaluma, CA00:00:00.00 280351  434 All Sport-Team Swift
20513.93David Mesa   Crockett, CA00:00:00.00 243257  462 squeky chains/ chica sexy
21516.46Christopher Barker   Rancho Cordova, CA00:00:00.00 196545  407 Rio Strada Racing
22519.00Mike Gonzales   San Mateo, CA00:00:00.00 205006  436 Davis Bike Club
23521.54Kevin Tufts   Cameron Park, CA00:00:00.00 243434  491 Bicycle Planet
24524.07Samuel Parker   San Francisco, CA00:00:00.00 88610  470 Team Roaring Mouse
25526.61Adam Hensley   Bakersfield, CA00:00:00.00 264830  444 AIAGE
26529.14Matt Tufts   Placerville, CA00:00:00.00 240212  492 Bicycle Planet
27531.68Jason Hanchett   Albany, CA00:00:00.00 255669  440 Berkeley Bicycle Club (BBC)
28534.21Thomas Mansell   San Leandro, CA00:00:00.00 276699  460 Team Oakland
29536.75Eduardo Guerrero   Corvallis, OR00:00:00.00 270937  437 ZteaM Cycling
30539.29Daniel Murray   San Francisco, CA00:00:00.00 236403  467 Team Roaring Mouse
31541.82Mark Fairman   San Francisco, CA00:00:00.00 270120  426 NA
32544.36Jordan Taylor   Oakland, CA00:00:00.00 268632  487 Berkeley Bicycle Club
33546.89Henry Scholz   San Francisco, CA00:00:00.00 267795  481 Team Roaring Mouse
34549.43Garrett Otto   San Luis Obispo, CA00:00:00.00 270003  468 SLO Nexus - Gym One
35551.96Ben Earl   San Luis Obispo, CA00:00:00.00 273452  424 SLO Nexus - Gym One
36554.50Ian Moore   Berkeley, CA00:00:00.00 166860  464 Berkeley Bicycle Club
37557.04Chris Thibodeau   Grass Valley, CA00:00:00.00 241949  489 Sierra Express Racing
38559.57Brian Krall   Davis, CA00:00:00.00 156347  454 Davis Bike Club
39562.11Anthony Bezsylko   Chicago, IL00:00:00.00 238364  411 Metromint Cycling
40Red Felix   00:00:00.00  428 Webcor/Altovelo
41ben egger   00:00:00.00  425 NA
42569.71Jesse Freese   Oakland, CA00:00:00.00 236688  431 Kaiser Permanente - Team Oakla
43572.25Andrew Hsu   Berkeley, CA00:00:00.00 273293  447 Webcor/Alto Velo
44574.79James Forester   Poway, CA00:00:00.00 167872  430 BBC
45577.32Benjamin Ragains   Sparks, NV00:00:00.00 211382  476 Cyclepaths/Wild Cherries Racin
46579.86Tim Fehon   San Francisco, CA00:00:00.00 263093  427 Team NorCal Bikesport
47582.39Francisco Azevedo   Santa Rosa, CA00:00:00.00 219166  405 Sportgenic/Squadra Ovest
48584.93Jason Hardi   Citrus Heights, CA00:00:00.00 287921  441 NA
49587.46Robert Gaukel   Santa Cruz, CA00:00:00.00 261233  433 Bicycle Trip
50590.00David Hillman   Vacaville, CA00:00:00.00 271039  445 Precision Bicycles/Team Precis
DNSMatthew Abdalah   Los Altos, CA00:00:00.00 224627   SugarCRM/SJBC
DNSSteven Au   Burlingame, CA00:00:00.00 91064   Village Peddler
DNSMatthew Batz   00:00:00.00   Webcor/Alto Velo
DNSSean Campbell   Oakland, CA00:00:00.00 198622   KOVARUS/ABTA
DNSEdward Ceaser   San Francisco, CA00:00:00.00 283838   Team Roaring Mouse
DNSJosh Chauvet   Reno , NV00:00:00.00 6691   Team Roaring Mouse
DNSSteve Christiansen   Fair Oaks, CA00:00:00.00 221057   Rio Strada Racing
DNSChristopher Coble   Concord, CA00:00:00.00 254754   Taleo Racing
DNSJoe Galloway   Exeter, CA00:00:00.00 242644   Yokohl Ranch/SBW
DNSJames Hayden   San Francisco, CA00:00:00.00 250790   Fusion Sport
DNSJames Hayden   San Francisco, CA00:00:00.00 250790   Fusion Sport
DNSAlexander Hsing   00:00:00.00   Stanford
DNSKyle Klopfer   Mill Valley, CA00:00:00.00 219025   ThirstyBear/CVC/Barlata
DNSJames Macdonald   Sacramento, CA00:00:00.00 232137   BEER
DNSHenry Mar   San Bruno, CA00:00:00.00 217433   Team Integrate/FFBC powered by
DNSJon Moeller   Foster City, CA00:00:00.00 226118   Third Pillar
DNSIvan Poddubnyy   San Jose, CA00:00:00.00 266310   Webcor/AltoVelo
DNSJulian Simioni   San Francisco, CA00:00:00.00 239604   Webcor/Alto Velo
DNSDave Smith   00:00:00.00   Rio Strada Racing
DNSRobert Werner   San Carlos, CA00:00:00.00 236490   Webcor/alto Velo
DNSBrad Wilson   Sacramento, CA00:00:00.00 273321   Team Mad Cat
DNPScott Andron   San Francisco, CA00:00:00.00 268339  401 Evergreen
DNPSteven Au   Burlingame, CA00:00:00.00 91064  402 Village Peddler
DNPDavid Bangor   00:00:00.00 237996  406 satanic warmaster/chica sexy
DNPCarson Blume   Redding, CA00:00:00.00 141869  413 Team Chicken Ranch
DNPChristopher Bosch   San Francisco, CA00:00:00.00 261766  414 Webcor/Alto Velo
DNPRyan Connolly   Redwood City, CA00:00:00.00 123594  421 Sexual Camel Racing
DNPChris Dawson   Sacramento, CA00:00:00.00 224241  422 River City Racing
DNPTimothy Dent   Sanfrancisco, CA00:00:00.00 285491  423 Team Roaring Mouse
DNPJake Goldfield   Mountain View, CA00:00:00.00 273814  435 SJBC/SugarCRM
DNPJames Hanacek   Fair Oaks, CA00:00:00.00 196180  439 Rio Strada Racing
DNPGarth Jackson   00:00:00.00  449 UN
DNPIsaias Job   Fremont, CA00:00:00.00 207885  450 Team Roaring Mouse
DNPJeremy Kimmel   Somerville, MA00:00:00.00 247475  451 Sexual Camel Racing
DNPRyan Kish   Walnut Creek, CA00:00:00.00 134783  452 ZteaM Cycling
DNPRob Leever   Citrus Heights, CA00:00:00.00 267651  456 Rio Strada Racing
DNPJeff Malnick   Monterey, CA00:00:00.00 260198  459 NA
DNPScott Moore   Santa Cruz, CA00:00:00.00 256976  465 JRVS
DNPZak Paillon   Sacramento, CA00:00:00.00 272054  469 Health is Wealth p/b Whole Foo
DNPEvan Paull   Santa Cruz, CA00:00:00.00 125808  471 Webcor/Alto Velo
DNPJohn Pemberton   Sacramento, CA00:00:00.00 228159  472 Bicycle Chef - Bio Bar
DNPJared Prolo   San Francisco, CA00:00:00.00 204463  475 Cycling Systems
DNPRyan Rickard   Bakersfield, CA00:00:00.00 76844  477 AIAGE Cycling
DNPWill Rose   San Francisco, CA00:00:00.00 237997  479 squeky chains
DNPJeremy Stanley   Cazadero, CA00:00:00.00 278623  484 Unattached
DNPLiam Stewart   San Francisco, CA00:00:00.00 271049  485 Team Roaring Mouse
DNPTodd Stone   Carmichael, CA00:00:00.00 249318  486 Rio Strada Racing
DNPJason Turner   Redwood City, CA00:00:00.00 255158  493 Kovarus/ABTA
DNPHenry Wu   San Francisco, CA00:00:00.00 270193  497 Evergreen Cycling

Men - Pro/Cat 1/2

 Place Points NameCity, StateTime USAC #BibTeam
1206.05Benjamin Jacques-Maynes   Corralitos, CA00:00:00.00 23057  78 UCI CT: Bissell Pro Cycling T
2212.90Scott Nydam (1 - Pro)   Window Rock, AZ00:00:00.00 205020  130 BMC Pro Cycling Team
3219.76Andy Jacques-Maynes   Watsonville, CA00:00:00.00 17590  87 Unattached
4226.61Fabrice DUBOST   Menlo Park, CA00:00:00.00 280966  100 Webcor/Alto Velo
5233.47Nathaniel English   Berkeley, CA00:00:00.00 258309  102 ZteaM
6240.33Daniel Holloway   Morgan Hill, CA00:00:00.00 181725  85 VMG-FELT
7247.18James Mattis   Mountain View, CA00:00:00.00 127344  72 California Giant Berry Farms/S
8254.04Christopher Jones   Bend, OR00:00:00.00 187300  114 Team Type 1
9260.90Dan Martin   Pleasanton, CA00:00:00.00 179386  124 Safeway/Bicycle Plus
10267.75Samuel Pickman   San Jose, CA00:00:00.00 133433  137 Specialized
11274.61Ryan Parnes   Stockton, CA00:00:00.00 220414  134 Webcor/Alto Velo
12281.46Justin Laue   Austin, TX00:00:00.00 264982  117 ZteaM
13Peter Latham   00:00:00.00  116 Bissell Pro Cycling Team
14295.18Jesse Moore   Sacramento, CA00:00:00.00 204739  127 California Giant -Specialized
15302.03Andres Gil   Stockton, CA00:00:00.00 171882  74 Pacific State Bank Cycling Tea
16308.89Kris Lunning   San Rafael, CA00:00:00.00 121729  121 Above Category
17315.75Daniel Bryant   Carmichael, CA00:00:00.00 195929  95 Safeway/Bicycle Plus
18322.60Ian Tuttle (1 - Cat1)   Mill Valley, CA00:00:00.00 216565  145 Above Category Racing
19Eric Wohlberg   00:00:00.00  76 
20336.31John Hunt   Fairfax, CA00:00:00.00 17154  113 California Giant -Specialized
21343.17Chris Turner   Los Altos, CA00:00:00.00 253101  144 Above Category Racing
22adrian hedderman   00:00:00.00  110 myhome.ie
23356.88Vincent Owens   Fresno, CA00:00:00.00 242560  133 HDR p/b Lombardi Sports
24363.74Christopher Phipps   San Francisco, CA00:00:00.00 233623  135 Morgan Stanley/Team Spine/Spec
25370.60Andrew Talansky   Napa, CA00:00:00.00 242630  73 UCI CT: TOSHIBA-Santo present
26377.45Osvaldo Olmos   San Luis Obispo, CA00:00:00.00 172541  131 California Giant -Specialized
27384.31Charlie Avis   Palo Alto, CA00:00:00.00 224306  90 Team Specialized Racing Junior
28391.16Evan Pickett   Menlo Park, CA00:00:00.00 206742  136 Metromint Cycling on Marin Bik
29398.02John Wilk   Oakland, CA00:00:00.00 199951  148 Sierra Pacific Racing
30404.88Timothy Farnham   San Francisco, CA00:00:00.00 198206  104 Bissell Pro Cycling
31411.73Henry Kramer   Menlo Park, CA00:00:00.00 52268  79 Unattached
32418.59Jeremy Ferguson   Rocklin, CA00:00:00.00 222762  105 California Giant Berry Farms/S
33425.45Bo Hebenstreit   Campbell, CA00:00:00.00 196276  109 Webcor/Alto Velo
34432.30Christopher Lyman   Napa, CA00:00:00.00 267171  122 Morgan Stanley/Team Spine/Spec
35439.16David Van Orsdel   Minnetonka, MN00:00:00.00 246440  146 Above Category Racing
36446.01Tyler Brandt   Vallejo, CA00:00:00.00 210604  94 HDR p/b Lombardi Sports
37452.87William (Billy) Crane   Mountain View, CA00:00:00.00 138129  98 Webcor/Alto Velo
38459.73John McKeen (1 - Cat2)   Hope, MI00:00:00.00 226134  126 Team Bearclaw
39466.58Frederick Stamm   San Luis Obispo, CA00:00:00.00 176943  141 METROMINT Cycling
DNSCharles Alexander   Sacramento, CA00:00:00.00 206466   Davis Bike Club
DNSScott Cole   Oakland, CA00:00:00.00 207165   Morgan Stanley/Team Spine/Spec
DNSSteve Holmes (Cat2)   Mill Valley, CA00:00:00.00 199746   Arete' Racing
DNSEric Nitschke (Cat2)   Mountain View, CA00:00:00.00 141064   HDR p/b Lombardi Sports
DQAndrew Demas   Los Altos, CA00:00:00.00 208643  88 Third Pillar
DQJonathan Eropkin (Cat1)   Fresno, CA00:00:00.00 197844  103 Safeway/Bicycles Plus
DQEvan Huffman   El Dorado Hills, CA00:00:00.00 256955  112 HDR p/b Lombardi Sports
DQLevi Leipheimer   Santa Rosa, CA00:00:00.00 51027  118 Astana
DNPMichael Cordova   Chester, CA00:00:00.00 207547  65 Chico Corsa Cycling Team
DNPGuido Palma   Northvale, NJ00:00:00.00 289480  66 Colavita/Sutter Home
DNPAnibal Borrajo   Lemon Grove, CA00:00:00.00 288132  67 Colavita/Sutter Home
DNPKenneth Hanson   San Diego, CA00:00:00.00 194969  68 California Giant Berry Farms/S
DNPYacov Spivak   Fair Oaks, CA00:00:00.00 241816  69 Chico Corsa Cycling Team
DNPPreston Ramsey   Spokane, WA00:00:00.00 29102  70 Team MK
DNPTaylor Kuphaldt (Cat1)   Yuba City, CA00:00:00.00 223012  71 U.S.A. National Team
DNPGreg Davis   Los Altos, CA00:00:00.00 119459  75 SugarCRM
DNPEd Richardson   Livermore, CA00:00:00.00 272019  80 InfoVista Cycling Team
DNPGary Douville   Santa Barbara, CA00:00:00.00 101476  81 Platinum Performance Cycling T
DNPPeter Graf (Cat2)   Sacramento, CA00:00:00.00 218511  82 Wells Fargo Racing Team
DNPMax Haines-Stiles   Palo Alto, CA00:00:00.00 238508  84 Metromint Cycling on Marin Bik
DNPKirt Fitzpatrick   San Francisco, CA00:00:00.00 11765  86 Sexual Camel
DNPAaron Beardsley   Berkeley, CA00:00:00.00 188253  91 Team Clif Bar
DNPJohn Bergmann (Cat1)   Albany, CA00:00:00.00 187522  92 Team Clif Bar
DNPLucas Binder   San Diego, CA00:00:00.00 262024  93 ZteaM
DNPBrian Buchholz   San Francisco, CA00:00:00.00 189913  96 Webcor/Alto Velo
DNPTyler Dibble   Oakland, CA00:00:00.00 205861  99 California Giant -Specialized
DNPRyan Eastman   Santa Rosa, CA00:00:00.00 251921  101 All Sport-Team Swift
DNPDanny Finneran (Cat1)   Oak Park, CA00:00:00.00 246923  106 Rock Racing
DNPEric Fischer (Cat2)   Berkeley, CA00:00:00.00 246309  107 Safeway / Bicycles Plus
DNPAndrew Goessling   Richmond, CA00:00:00.00 207262  108 HDR p/b Lombardi Sports
DNPKevin Klein   Menlo Park, CA00:00:00.00 47388  115 KLEIN Real Estate
DNPJason Lowetz   Williamsburg, MI00:00:00.00 129069  119 Team Bearclaw
DNPJustin Lucke   Redwood City, CA00:00:00.00 21760  120 SugarCRM
DNPMichael Margraf   Auburn, CA00:00:00.00 128847  123 Safeway / Bicycles Plus
DNPSean McBride   Oakland, CA00:00:00.00 190591  125 HDR p/b Lombardi Sports
DNPThomas Novikoff   San Jose, CA00:00:00.00 141331  129 Webcor/Alto Velo
DNPLuca Ortolani   San Francisco, CA00:00:00.00 207747  132 NA
DNPShawn Rosenthal   Berkeley, CA00:00:00.00 196247  138 ZteaM
DNPNick Schaffner   Truckee, CA00:00:00.00 187296  139 Cyclepaths/Wild Cherries Racin
DNPZack Sober (Cat2)   San Ramon, CA00:00:00.00 220077  140 Wells Fargo Racing Team
DNPAdam Switters (Cat1)   Citrus Heights, CA00:00:00.00 127093  142 California Giant -Specialized
DNPMichael Telega   Los Angeles, CA00:00:00.00 162569  143 California Giant -Specialized
DNPTroy Wells   Durango, CO00:00:00.00 112599  147 Team Clif Bar
DNPJeff Williams   Los Gatos, CA00:00:00.00 236985  149 Webcor/Alto Velo
DNPGeorge Pryor   Irvine, CA00:00:00.00 206295  77 UC Irvine
DNPPhilipp Sohn (Cat1)   Irvine, CA00:00:00.00 287328  83 UC Irvine

Men - Cat 1/2/3 - Master - 35-99

 Place Points NameCity, StateTime USAC #BibTeam
1317.51Kevin Metcalfe   Pleasant Hill, CA00:00:00.00 47519  275 Team Specialized Racing
2323.70Michael Sayers   Fair Oaks, CA00:00:00.00 54591  288 Amgen/Giant Masters Cycling Te
3329.89Brian Bosch   Fresno, CA00:00:00.00 40703  243 Sierra Pacific Racing
4336.08Richard Del Valle   San Jose, CA00:00:00.00 9150  251 Morgan Stanley/Spine/Specializ
5342.28Norman Zellers   El Segundo, CA00:00:00.00 140740  299 VOS-Cycles Gladiator
6348.47Brian Choi   Folsom, CA00:00:00.00 52849  249 Stuzio.com
7354.66Chris Wire   Saratoga, CA00:00:00.00 152176  298 SJBC/SugarCRM
8360.86Tracy Colwell   Sunnyvale, CA00:00:00.00 125475  250 Webcor/Alto Velo
9367.05Glenn Rawlinson   Menlo Park, CA00:00:00.00 167473  283 Cyclepaths/Wild Cherries Racin
10373.24Scott Peifer   Granite Bay, CA00:00:00.00 265877  281 Team Bicycles Plus/Sierra Neva
11379.44Rich Thurman   Chico, CA00:00:00.00 35561  294 IC3
12385.63Kevin Kennedy   Danville, CA00:00:00.00 264239  265 Taleo Racing
13391.82Eric Easterling   Fresno, CA00:00:00.00 79101  252 Sierra Pacific Racing
14398.02Todd Hennings   Kenwood, CA00:00:00.00 15835  254 Pacific State Bank Cycling Tea
15404.21Tom Skiles   Salinas, CA00:00:00.00 169701  238 Unattached
16410.40Nils Johnson   Davis, CA00:00:00.00 196328  263 Safeway/Bicycles Plus
17416.59Lucas Paz   Richmond, CA00:00:00.00 150305  280 East Bay Velo Club
18422.79Jason Boynton   Yuba City, CA00:00:00.00 4526  244 Rocknasium
19428.98Greg McQuaid   San Francisco, CA00:00:00.00 249424  273 SJBC/SugarCRM
20435.17Michael Hernandez   Oakland, CA00:00:00.00 136641  255 VOS-Cycles Gladiator
21441.37Greg Mellor (1 - Cat2)   Clovis, CA00:00:00.00 209186  274 Sierra Pacific Racing
22447.56Edward Nicolson   San Francisco, CA00:00:00.00 221687  236 CRC/Poggio
23453.75David Levine   Alamo, CA00:00:00.00 145573  268 Taleo Racing
24459.95Daryl Spano   Fremont, CA00:00:00.00 146243  291 SJBC/SugarCRM
25466.14Patrick McClurg   Citrus Heights, CA00:00:00.00 48984  272 Team Bicycles Plus/Sierra Neva
26472.33William Sans   San Mateo, CA00:00:00.00 48284  237 Unattached
27478.53Tim Butler   Clovis, CA00:00:00.00 239746  246 Sierra Pacific Racing
28484.72David Loogman   Modesto, CA00:00:00.00 71865  269 HDR p/b Lombardi Sports
29490.91Aaron Hunter   Santa Cruz, CA00:00:00.00 215194  259 VOS-Cycles Gladiator
30497.10Michael Vetterli   Alamo, CA00:00:00.00 214565  296 Olympic Club
31503.30Robert Winder   Lafayette, CA00:00:00.00 220285  286 NorCal Elite Cycling
32509.49David Porter   San Jose, CA00:00:00.00 126711  282 TBS Racing
33515.68Jason Snovel   Sacramento, CA00:00:00.00 268577  290 Rocknasium
34521.88Chris Ott   San Jose, CA00:00:00.00 26920  279 Unattached
35528.07Craig Stewart   Orinda, CA00:00:00.00 205201  292 Taleo Racing
36534.26Samuel Ames   Bakersfield, CA00:00:00.00 1536  242 AIAGE Cycling
37540.46Todd Studenicka   San Jose, CA00:00:00.00 34489  293 SJBC/SugarCRM
38546.65Jason Brown   Lodi, CA00:00:00.00 53115  245 VOS-Cycles Gladiator
39552.84Edward Leon   San Anselmo, CA00:00:00.00 207154  235 Whole Athlete
40559.03James Herzman   Truckee, CA00:00:00.00 207922  256 Reno Wheelmen
41565.23Michael Hutson   Bakersfield, CA00:00:00.00 179849  260 aiage
42571.42Richard Sangalli   Hillsborough, CA00:00:00.00 31263  287 N/A
43577.61Bret Martin   Oakland, CA00:00:00.00 60446  271 Sycip
44583.81Andrew Kennedy   Martinez, CA00:00:00.00 257276  264 Team Hammer Nutrition p/b Kenn
45Justin Morgan   00:00:00.00  276 VOS-Cycles Gladiator
DNSDavid Albrecht   Chico, CA00:00:00.00 47091   Chico Corsa Cycling Team
DNSRobert Luttrell   San Francisco, CA00:00:00.00 196333   Fusion Sport
DNSeric nelson   00:00:00.00   Sunnyside Sports
DNSThornton Weiler   Alameda, CA00:00:00.00 147592   Cycle Sport/Trumer Pils
DNSDavid Rous   Bakersfield, CA00:00:00.00 189872   AIAGE Cycling Team
DNPDavid Rous   Bakersfield, CA00:00:00.00 189872  239 AIAGE Cycling Club
DNPJoel Robertson   San Leandro, CA00:00:00.00 220316  240 Sierra Pacific Racing
DNPLance Cameron   Pacific Grove, CA00:00:00.00 5900  247 Don Chapin Monterey Bay Racing
DNPRon Castia   Livermore, CA00:00:00.00 144264  248 InfoVista Cycling Team
DNPGregory Gambetta   Sacramento, CA00:00:00.00 212916  253 Safeway/Bicycle Plus
DNPBrad Hillebrandt   Alamo, CA00:00:00.00 16219  257 Taleo Racing
DNPMichael Holt   Morgan Hill, CA00:00:00.00 75334  258 TBS Racing
DNPWilliam Innes   Menlo Park, CA00:00:00.00 52412  261 Team Specialized Racing
DNPMichael Jacques   Portola Valley, CA00:00:00.00 72022  262 Garrison Institutional/ TBS
DNPMatt Kramer   Los Gatos, CA00:00:00.00 183871  266 VOS-Cycles Gladiator
DNPC Scott Lee   Sacramento, CA00:00:00.00 103903  267 Scott Lee
DNPDave Nelson   San Jose, CA00:00:00.00 25843  277 HDR p/b Lombardi Sports
DNPCraig Roemer   Petaluma, CA00:00:00.00 80925  284 Team Specialized Masters
DNPTom Rosencrantz   Mill Valley, CA00:00:00.00 91336  285 Taleo Racing
DNPAlex Smith   Berkeley, CA00:00:00.00 33022  289 Miramonte Cycling
DNPJudd Van Sickle   Sacramento, CA00:00:00.00 127052  295 Rocknasium

Men - Cat 1/2/3 - Master - 45-99

 Place Points NameCity, StateTime USAC #BibTeam
1321.86Mark Edwards   Santa Cruz, CA00:00:00.00 236580  252 Bike Trip
2329.00Michael Hotten   Westchester, CA00:00:00.00 207423  262 Cynergy Race Team
3336.13Michael Pugh   Davis, CA00:00:00.00 28820  282 Davis Bike Club
4343.27Andrew Nevitt   Saratoga, CA00:00:00.00 47463  273 SJBC/SugarCRM
5350.41Donald Langley   Morgan Hill, CA00:00:00.00 20327  266 Morgan Stanley/Specialized/Tea
6357.55Geoffrey Drake   Aptos, CA00:00:00.00 9986  251 Team Bicycle Trip
7364.68John Hancock   Sacramento, CA00:00:00.00 195844  259 
8371.82Jan Elsbach   Davis, CA00:00:00.00 200149  253 VOS-Cycles Gladiator
9378.96Robert Anderson   Mill Valley, CA00:00:00.00 1688  242 Team Specialized Racing Master
10386.10Jon Ornstil   San Francisco, CA00:00:00.00 71802  279 VOS-Cycles Gladiator
11393.23Scott Derdenger   Benicia, CA00:00:00.00 55123  238 EMC 2/Felt Bicycles
12400.37Matt Yaden   Danville, CA00:00:00.00 238250  299 Wells Fargo Racing Team
13407.51Scott Busby   Bishop, CA00:00:00.00 246451  245 East Side Velo
14414.64Clark Foy   Los Gatos, CA00:00:00.00 255066  255 SJBC/SugarCRM
15421.78Barry Schwarz   Berkeley, CA00:00:00.00 45914  239 Unattached
16428.92John Marshall   Reno, NV00:00:00.00 207775  269 Reno Wheelmen
17436.06Russell Cadwallader   Aptos, CA00:00:00.00 5785  246 Team Bicycle Trip
18443.19Ron Fritzke (1 - Cat3)   Mount Shasta, CA00:00:00.00 274050  256 Taleo Racing
19450.33Craig Lindberg   Nevada City, CA00:00:00.00 83707  267 SERT/Sho-Air
20457.47James Allen   Davis, CA00:00:00.00 196753  241 VOS-Cycles Gladiator
21464.61Lance Newey   Fair Oaks, CA00:00:00.00 202161  274 Team Bicycles Plus/Sierra Neva
22471.74James Morgan   Oakland, CA00:00:00.00 208555  272 Webcor/Alto Velo
23478.88Chris Courtney   Oakdale, CA00:00:00.00 47303  250 Unattached
24486.02Thomas Coulter   Rocklin, CA00:00:00.00 74102  249 Morgan Stanley/Team Spine/Spec
25493.15Dan Sovereign   Sacramento, CA00:00:00.00 106455  292 KINETIC Cycles
26500.29Kevin Willitts   S Lake Tahoe, CA00:00:00.00 192774  298 Garrison Institutional
27507.43David Christenberry   San Jose, CA00:00:00.00 180313  248 Webcor/Alto Velo
28514.57Robert Montuori   Newcastle, CA00:00:00.00 224234  271 Team Bicycles Plus/Sierra Neva
29521.70Alan Nielson   Dublin, CA00:00:00.00 236183  276 Wells Fargo Racing Team
30528.84Fred Schnaars   Davis, CA00:00:00.00 65032  288 Davis Bike Club
31535.98Darryl Smith   Pleasanton, CA00:00:00.00 33092  291 International Christian Cyclin
32543.11Duane Strawser   Nevada City, CA00:00:00.00 34392  293 SERT/Sho-Air
33Jonathan Sek   00:00:00.00  289 SJBC/SugarCRM
34557.39Norman Kreiss   Orinda, CA00:00:00.00 127410  265 Morgan Stanley/Team Spine/Spec
35564.53Kevin Farrauto   Livermore, CA00:00:00.00 662  254 IC3
36571.66Mark Petrucci   Santa Rosa, CA00:00:00.00 57790  281 unattached
37578.80Brian Starr   Santa Maria, CA00:00:00.00 33862  237 Team Tailwinds
DNSRon Callison   Danville, CA00:00:00.00 130870   VSRT/Livermore Cyclery
DNSRobert Hauft   Indian Wells, CA00:00:00.00 167930   NA
DNSMark Howland   Santa Cruz, CA00:00:00.00 16935   Blackmarket Racing
DNSLawrence Nolan   Fremont, CA00:00:00.00 26205   Team Specialized Racing Master
DNSJohn Novitsky   Woodside, CA00:00:00.00 102274   VOS - Cycles Gladiator
DNSClark Rasmussen   San Francisco, CA00:00:00.00 47316   Wells Fargo Racing Team
DNSCale Reeder   Cameron Park, CA00:00:00.00 272237   International Christian Cyclin
DNSTed Toribio   Elk Grove00:00:00.00 88963   International Christian Cyclin
DNSBret Wade   Boulder, CO00:00:00.00 36851   Vitamin Cottage Cycling Team
DNPStanley Dominguez   Sacramento, CA00:00:00.00 49084  236 Cynergy
DNPJohn Ford   Redwood City, CA00:00:00.00 129994  240 Morgan Stanley/24 Hr Fitness/S
DNPJohn Bonnet   Aptos, CA00:00:00.00 125403  243 SJBC/SugarCRM
DNPRichard Burns   Folsom, CA00:00:00.00 255440  244 Team Bicycles Plus/Sierra Neva
DNPMike Gadow   Dublin, CA00:00:00.00 12619  257 TIENI DURO
DNPDave Gane   San Leandro, CA00:00:00.00 12735  258 Morgan Stanley
DNPMarco Hellman   San Francisco, CA00:00:00.00 123885  261 Team Specialized Racing
DNPHarold Johnson   Mill Valley, CA00:00:00.00 17952  264 Olympic Club
DNPRichard Maile   Sacramento, CA00:00:00.00 153697  268 Sacramento Cyclocross
DNPGlenn Mattsson   Santa Rosa, CA00:00:00.00 100331  270 Fightin' Bobas
DNPRobert Nichols   Lockeford, CA00:00:00.00 255632  275 Pacific State Bank cycling tea
DNPWilliam Owens   Truckee, CA00:00:00.00 26982  280 Reno Wheelmen
DNPBlake Reed   00:00:00.00  284 Bishop's Peak Wines/ArtsCycler
DNPTony Reid   Sacramento, CA00:00:00.00 29458  286 Safeway / Bicycles Plus
DNPEric Saltzman   Menlo Park, CA00:00:00.00 46157  287 Morgan Stanley/Team Spine/Spec
DNPDaniel Smith   Menlo Park, CA00:00:00.00 33087  290 Morgan Stanley/Specialized/24h
DNPMax Thompson   San Anselmo, CA00:00:00.00 80642  294 Morgan Stanley/Team Spine/Spec
DNPScot Wigert   Petaluma, CA00:00:00.00 46954  297 Team Bici Sport

Men - Cat 3

 Place Points NameCity, StateTime USAC #BibTeam
1Michael Jasinski   00:00:00.00  368 chico corsa
2358.10Paul Dyrwal   San Rafael, CA00:00:00.00 254245  355 Morgan Stanley/Team Spine/Spec
3365.05Daniel Mason   San Francisco, CA00:00:00.00 206921  377 Kovarus/ABTA
4372.00Toby Long   Oakland, CA00:00:00.00 262539  374 Kaiser Permanente / Team Oakla
5378.95Peter Armstrong   Lafayette, CA00:00:00.00 279806  344 Taleo Racing
6385.90Peter Taylor   Walnut Creek, CA00:00:00.00 219859  395 Team Specialized Racing
7UNKNOWN RIDER   00:00:00.00  34X -------
8399.80Morgan Ryan   Ventura, CA00:00:00.00 177959  388 Major Motion Development
9406.75donald hahn   Reno, NV00:00:00.00 280149  338 Unattached
10413.70Eric Hovland   Danville, CA00:00:00.00 42891  365 Wells Fargo Racing Team
11420.65Robert (Grant) Riggs   Burlingame, CA00:00:00.00 254731  387 Peninsula Velo Pomodoro
12427.60Michael Fee   Oakland, CA00:00:00.00 75599  356 Kaiser Permanente/Team Oakland
13434.55Darren Leva   Woodside, CA00:00:00.00 221519  371 Sexual Camel
14441.50Floyd Long   Alameda, CA00:00:00.00 256125  373 Kaiser Permanente/Team Oakland
15448.45Maurice Klein   Oakland, CA00:00:00.00 254638  370 ThirstyBear/CVC/Barlata/3RingC
16455.40Nathanael Christensen   Clements, CA00:00:00.00 239919  349 Delta Velo
17462.35Travis T   San Francisco, CA00:00:00.00 158451  394 Metromint Cycling
18469.30Keith Hillier   Millbrae, CA00:00:00.00 276108  364 Davis Bike Club
19476.25Joshua Hughes   Sacramento, CA00:00:00.00 123925  339 Victory Velo Bike Shop
20483.20Giampaolo Pesce   Santa Rosa, CA00:00:00.00 66425  383 norcal bike sport elite
21490.15Bryan Buck   San Jose, CA00:00:00.00 141246  347 Webcor/Alto Velo
22497.10Ryan Byars   Durham, NC00:00:00.00 266612  348 Team Roaring Mouse
23504.04Graeme Galyer   San Jose, CA00:00:00.00 191195  358 Denver/Boulder Couriers
24510.99Michael Grundmann   Sunnyvale, CA00:00:00.00 182738  362 Webcor/Alto Velo
25517.94Robert Raymond   Hayward, CA00:00:00.00 200414  385 InfoVista Cycling Team
26524.89Sean McDonald   Wallace, CA00:00:00.00 262357  378 Pacific State Bank Cycling Tea
27531.84Bob Delp   Folsom, CA00:00:00.00 9138  354 Team Bicycles Plus/Sierra Neva
28538.79David Parrish   San Francisco, CA00:00:00.00 233830  382 Team Roaring Mouse
29545.74David Huang   Davis, CA00:00:00.00 159154  366 Davis Bike Club
30552.69Marc Adam   New York, NY00:00:00.00 228729  342 Champion Sytems
31559.64Michael Vella   Saratoga, CA00:00:00.00 167402  396 Webcor /Alto Velo
32566.59Damian Gonzalez   Stockton, CA00:00:00.00 178252  359 NA
33573.54Grant Cutler   Palo Alto, CA00:00:00.00 8454  352 Altezza 40 / Albero delle ruot
34580.49Robert Meyer   Mountain View, CA00:00:00.00 255751  379 Metromint Cycling
35587.44Jay Sturges   Sacramento, CA00:00:00.00 43151  340 SGW/City Bicycle Works
DNSEd Richardson   Livermore, CA00:00:00.00 272019   ZteaM
DNSAnthony Coando   San Francisco, CA00:00:00.00 170101   Active Athlete/Squadra Ovest
DNSMarkham Connolly   Berkeley, CA00:00:00.00 208359   Touchstone Climbing
DNSGeoffrey Davis   San Luis Obispo, CA00:00:00.00 205688   Bishop Peak's Winery/Art's Cyc
DNSMark Herynk   Redwood City, CA00:00:00.00 157123   Webcor/Alto Velo
DNSTroy Newton   Santa Rosa, CA00:00:00.00 190533   Whole Athlete
DNPBernhard Stonas   Hayward, CA00:00:00.00 67169  336 Webcor/Alto Velo
DNPMichael Ricks   Stockton, CA00:00:00.00 250319  337 Chico Corsa Cycling Team
DNPWilliam Dunham   San Jose, CA00:00:00.00 206162  341 Webcor/Alto Velo
DNPDan Adkins   Oakland, CA00:00:00.00 177509  343 Metromint Cycling
DNPtaylor bertrand-barrett   00:00:00.00  345 colavita norcal
DNPAlex Brookhouse   Santa Rosa, CA00:00:00.00 241648  346 Team Norcal Bike Sport
DNPJared Franzoia   San Anselmo, CA00:00:00.00 57241  357 Bullseye Racing
DNPHans Gouwens   Corte Madera, CA00:00:00.00 196222  360 ThirstyBear/CVC/Barlata/3RingC
DNPRyan Graham   San Francisco, CA00:00:00.00 273290  361 Greensouth John Deere
DNPCallum Ingram   Charlottesville, VA00:00:00.00 268349  367 Unattached
DNPKeith Jordon   Hayward, CA00:00:00.00 254515  369 Berkeley Bicycle Club (BBC)
DNPAaron Long   Oakland, CA00:00:00.00 158083  372 ThirstyBear/CVC/Barlata/3Ring
DNPAsim Malik   San Jose, CA00:00:00.00 165925  375 Whole Athlete
DNPErick Marcheschi   Morgan Hill, CA00:00:00.00 96065  376 Specialized
DNPPaul O'Reilly   South San Francisco, CA00:00:00.00 155042  381 Peninsula Velo Pomodoro
DNPJohn Piasta   Santa Rosa, CA00:00:00.00 271963  384 All Sport-Team Swift
DNPJoel Shaffer   Los Altos Hills, CA00:00:00.00 208502  389 Team Specialized Racing
DNPSteven Smith   Santa Barbara, CA00:00:00.00 67527  390 Platinum Performance
DNPJonathan Southam   Napa, CA00:00:00.00 271641  391 Kovarus/ABTA
DNPBenjamin Stern   Mequon, WI00:00:00.00 238365  392 Team Roaring Mouse
DNPMurray Swanson   Woodside, CA00:00:00.00 206144  393 Peninsula Velo/Pomodoro
DNPPeter Wood   Cupertino, CA00:00:00.00 196669  397 ThirstyBear/CVC/Barlata/3RingC
DNPChad Woofter   Napa, CA00:00:00.00 78079  398 eagle racing team
DNPEric Zumwalt   Santa Rosa, CA00:00:00.00 53375  399 NorCal Cycling Team

Men - Cat 5

 Place Points NameCity, StateTime USAC #BibTeam
1500.38Lawrence Baum   Newbury Park, CA00:00:00.00 245621  509 Fast Friday
2504.28Johannes Steffens   Sanjose, CA00:00:00.00 290022  541 SJBC/SugarCRM
3508.17Andrew LaBarre   Alameda, CA00:00:00.00 271445  527 none
4512.07Jesse Rushing   Chico, CA00:00:00.00 284268  536 Chico Corsa
5515.97Alex Lugosch   Sanfrancisco, CA00:00:00.00 281513  528 NA
6Kris Tjernell   00:00:00.00  545 Team Becher +
7523.76Ryan Booth   Sausalito, CA00:00:00.00 4248  510 SunPower
8527.66Frank Spiteri   San Mateo, CA00:00:00.00 236118  540 Peninsula Velo/Pomodoro
9Greg Kotzbauer   00:00:00.00  526 
10Ryan Drobek   00:00:00.00  516 Team Becher+
11539.35Benjamin Barry   Arcata, CA00:00:00.00 289212  508 BEER
12543.24Scott Sommerfeld   Manteca, CA00:00:00.00 288687  539 NA
13john gravois   00:00:00.00  521 Becher+
14551.03Steven Richardson   San Francisco, CA00:00:00.00 271235  535 Evergreen Cycling
15Kirk Evans   00:00:00.00  518 NA
16558.83Carson Jeffres   Woodland, CA00:00:00.00 17726  522 Davis Bike Club
17562.72Sean Dawson   San Francisco, CA00:00:00.00 286341  513 Team Roaring Mouse
18566.62Drew Webb   Eldridge, IA00:00:00.00 286298  548 Taleo Racing
19570.52Donald Goldberg   Holladay, UT00:00:00.00 287308  520 ConsultNet
20tim koehler   00:00:00.00  524 tam cycling
21Aaron McDonald   00:00:00.00  531 NA
22Michael Deza   00:00:00.00  514 NA
23Charles Wiesner   00:00:00.00  549 Big SWINGIN' Cycles
24Collin Magnetti   00:00:00.00  529 NA
DNSWeston Crumm   00:00:00.00   
DNSBrian Carr   San Francisco, CA00:00:00.00 274435   Lotus Bakery Cycling
DNSnoe dominguez   00:00:00.00   NA
DNSgeorge karabatsos   San Jose, CA00:00:00.00 286810   Unattached
DNSbrian mancini   00:00:00.00   NA
DNSDominic Pezzoni   00:00:00.00   Los Gatos
DNSThad Stockham   Santacruz, CA00:00:00.00 293319   Team Bicycle Trip
DNSDaniel Thompson   San Leandro, CA00:00:00.00 241155   Team Oakland Cycling
DNSCaspar Wagner   00:00:00.00   
DNPJason Brasel   Nashville, TN00:00:00.00 287349  511 Davis Bike Club
DNPChristopher Dudley   Reno, NV00:00:00.00 285988  517 Nevada Cycling
DNPUri Friedman   San Francisco, CA00:00:00.00 202518  519 Chica Sexy
DNPmatthew koenig   00:00:00.00  525 golden chain cyclist
DNPJoe Miller   Benicia, CA00:00:00.00 269479  532 Taleo Racing
DNPCharles Potts   00:00:00.00  534 NA
DNPWill Schlicher   00:00:00.00  537 IC3
DNPHosea Shepherd   00:00:00.00  538 Delta Velo
DNPChris Summers   San Francisco, CA00:00:00.00 286027  543 NA
DNPChaz Turmon   00:00:00.00  546 Rubber Soul/ CSC Racing Team
DNPAdam Becker   Oakland, CA00:00:00.00 286644  598 BBC
DNPMichael Monohon   00:00:00.00  599 

Men - Masters - Master - 55-99

 Place Points NameCity, StateTime USAC #BibTeam
1Peter Taylor   00:00:00.00  796 Reno Wheelman
2408.46John Elgart   Sacramento, CA00:00:00.00 45071  772 Webcor/Alto Velo
3414.95Mark Caldwell   Moraga, CA00:00:00.00 40039  764 Morgan Stanley/24 Hr Fitness/S
4421.43John Wagnon   Glenbrook, NV00:00:00.00 266614  797 Alta Alpina
5427.91Mac Carey   Pleasant Hill, CA00:00:00.00 249301  768 Taleo Racing
6434.40Scott Hennessy   Salinas, CA00:00:00.00 15827  780 VOS-Cycles Gladiator Racing
7440.88Richard Lorson   Reno, NV00:00:00.00 21612  786 Liquid Cycling / Reno Racing
8447.36Scott Duncan   Healdsburg, CA00:00:00.00 125894  770 Sho-Air/Sonance/Velosport
9453.85James Langley   Santa Cruz, CA00:00:00.00 20326  783 Team Bicycle Trip
10460.33Glenn Rennels   Palo Alto, CA00:00:00.00 45837  791 
11466.81David Stockwell   San Jose, CA00:00:00.00 53052  795 SJBC/SugarCRM
12473.30Paul McKenzie   Richmond, CA00:00:00.00 120352  787 Cyclepaths/Wild Cherries Racin
13479.78Morgan Caldwell   Lafayette, CA00:00:00.00 55374  763 Morgan Stanley/24 Hr Fitness/S
14486.26Alfred Kerr   Willits, CA00:00:00.00 262541  782 Fightin' Bobas
15492.75Frederick Stamm   San Mateo, CA00:00:00.00 195461  794 Peninsula Velo/Pomodoro
16499.23Thomas Fox   San Francisco, CA00:00:00.00 211278  776 SF Sport & Spine
17505.72Richard Humphreys   Carmichael, CA00:00:00.00 51892  781 alto velo/webcor
18512.20Lloyd Rath   San Francisco, CA00:00:00.00 65453  790 Mako / Mellow Motors
19518.68Larry Wolff   Sacramento, CA00:00:00.00 219527  798 Webcor/Alto Velo
20525.17Dana Farmer   Gold River, CA00:00:00.00 150815  774 VOS-Cycles Gladiator
21531.65Steve Esswein (1 - Cat4)   Cupertino, CA00:00:00.00 204759  773 Webcor / Alto Velo
22538.13Gary German (1 - Cat5)   Redding, CA00:00:00.00 13107  778 Redding Velo
23544.62Randy Bowman (2 - Cat4)   Pleasanton, CA00:00:00.00 97407  767 InfoVista Cycling Team
24551.10Leland Gee   Santa Rosa, CA00:00:00.00 45367  777 Fightin' Bobas
25557.58Douglas Lindsay   Truckee, CA00:00:00.00 21257  785 Reno Wheelmen
26564.07Bennie Weber   Lodi, CA00:00:00.00 203593  765 Pacific State Bank Cycling Tea
27570.55Peter Meyer   Mount Aukum, CA00:00:00.00 219925  759 Rio Strada Racing
28577.03Manuel Borges   Vacavaille, CA00:00:00.00 254360  766 VOS-Cycles Gladiator
29583.52Bob Ebe   Lafayette, CA00:00:00.00 229180  771 Taleo Racing
30590.00Bruce Coffey   Newman, CA00:00:00.00 271696  769 SJBC/SugarCRM
DNSCasey Ford   Auburn, CA00:00:00.00 205700   NA
DNSDan Lekovish   San Leandro, CA00:00:00.00 254610   Taleo Racing
DNSSid Noyes   Eureka, CA00:00:00.00 54640   ZTeam
DNSMichael Phelps   Angels Camp, CA00:00:00.00 272743   VOS-Cycles Gladiator
DNSGary So (Cat4)   Santa Rosa, CA00:00:00.00 52042   Fightin Bobas
DNSRoger Squier   Orinda, CA00:00:00.00 281681   Taleo Racing
DNPGerry Burney   Ukiah, CA00:00:00.00 45136  760 Fightin' Bobas
DNPAllan King   Gardnerville, NV00:00:00.00 213650  761 
DNPPaul Langlois   Santa Rosa, CA00:00:00.00 20330  762 Fightin' Bobas
DNPGary Griffin   Boulder Creek, CA00:00:00.00 254036  779 Team Bicycle Trip
DNPPaige Youngman   Dublin, CA00:00:00.00 39334  799 Taleo Racing

Men - Junior - 10-12

 Place Points NameCity, StateTime USAC #BibTeam
1540.00Duncan Reid   Palos Verdes Estates, CA00:00:00.00 259885  999 Peninsula Cycle Club
2565.00Daniel Gurevich   Pleasanton, CA00:00:00.00 279387  997 SJBC/SugarCRM
3590.00Michelle Hill   Campbell, CA00:00:00.00 280088  998 SugarCRM

Men - Junior - 13-14

 Place Points NameCity, StateTime USAC #BibTeam
1479.97Andrew Biscardi   San Jose, CA00:00:00.00 280347  970 SJBC/SugarCRM
2484.31Spence Peterson   Mill Valley, CA00:00:00.00 235691  980 Above Category Racing
3488.64Griffin Wigert   Petaluma, CA00:00:00.00 272280  984 All Sport-Team Swift
4492.98Dylan Drummond   Walnut Creek, CA00:00:00.00 265912  973 Tieni Duro
5Skyler Taylor   00:00:00.00  981 Above Category Racing
6501.65Stanley Goto   Petaluma, CA00:00:00.00 254829  975 Team Swift
7505.98Stasiu Tippett   Sonora, CA00:00:00.00 283487  969 Unattached
8510.32Ryan Grant   San Francisco, CA00:00:00.00 253950  976 All Sport-Team Swift
9Henry Nelson   00:00:00.00  979 Tieni Duro
10518.99Katrina Howard   Fresno, CA00:00:00.00 231847  978 Vapor Racing
11523.33Dominique van den Dries   Los Gatos, CA00:00:00.00 255641  983 PROMAN
12527.66Matthew Valencia   Los Altos, CA00:00:00.00 255576  982 SugarCRM
13Robbie Farrens   00:00:00.00  974 Rockets
14536.33Rebecca Hill   Campbell, CA00:00:00.00 280087  977 SugarCRM
DNSDexter Bradford   00:00:00.00   
DNPJonathan Christensen   Clements, CA00:00:00.00 250315  972 Rocket Sports Racing

Men - Junior - 15-16

 Place Points NameCity, StateTime USAC #BibTeam
1375.91Torey Philipp   El Dorado Hills, CA00:00:00.00 263055  994 Davis Bike Club
2387.90Marcus Smith   Pleasanton, CA00:00:00.00 209193  998 Team Specialized Racing Junior
3Anthony Smith   00:00:00.00  997 Whole Athlete
4411.89Alistair Eeckman   Berkeley, CA00:00:00.00 281189  979 Team Specialized Racing Junior
5423.88Bjorn Fox   Berkeley, CA00:00:00.00 220350  980 Above Category Racing
6435.88Andrew Lanier   Gilroy, CA00:00:00.00 226086  992 Team Specialized Racing
7447.87yuma koishi   Cupertino, CA00:00:00.00 273567  987 SJBC/SugarCRM
8459.87Chris LaBerge   Napa, CA00:00:00.00 229950  989 Team Specialized Racing
9471.86Alexander Freund   Davis, CA00:00:00.00 222322  981 Davis Bike Club
10483.85Dillon Hollinger   Clayton, CA00:00:00.00 272354  984 Forward Motion Race Club
11495.85Matthew Muegge   Pittsburg, CA00:00:00.00 287841  993 Unattached
12507.84David Benkoski   Menlo Park, CA00:00:00.00 271685  977 Team Specialized Racing
13519.83Ryan Gadow   Dublin, CA00:00:00.00 271417  982 Tieni Duro
14531.83Tyler Hanson   Orinda, CA00:00:00.00 257206  983 Tieni Duro
15543.82Isaiah Rapko   Berkeley, CA00:00:00.00 247899  995 Above Category Racing
DNSAlex Huettis   Placerville, CA00:00:00.00 286331   Davis Bike Club
DNPEllis Anderson   Moraga, CA00:00:00.00 274504  976 tieni Duro
DNPJoseph Christensen   Clements, CA00:00:00.00 240832  978 Rocket Sports Racing
DNPAlex Howard   Mill Valley, CA00:00:00.00 273094  985 Above Category Racing
DNPGento Kusano   Cupertino, CA00:00:00.00 272300  988 SJBC/SugarCRM
DNPJames LaBerge   Napa, CA00:00:00.00 221376  990 Team Specialized Racing
DNPGreg Landon   Danville, CA00:00:00.00 289930  991 Tieni Duro
DNPBob Siegel   Mill Valley, CA00:00:00.00 279805  996 Above Category Racing
DNPBobby Zidek   00:00:00.00  999 Whole Athlete

Men - Junior - 17-18

 Place Points NameCity, StateTime USAC #BibTeam
1331.76Ben Sukys   Orinda, CA00:00:00.00 255487  688 Miramonte
2355.61Daniel Farinha   San Jose, CA00:00:00.00 240558  677 SJBC/SugarCRM
3379.46Adam Hodes   San Francisco, CA00:00:00.00 219706  680 Tieni Duro
4403.31Samuel Bolster   Camino, CA00:00:00.00 258704  676 Team Kinetic Cycles
5427.15Andreas Freund   Berkeley, CA00:00:00.00 222320  678 Davis Bike Club
6451.00Cody Tapley   Citrus Heights, CA00:00:00.00 234610  689 Davis Bike club
7474.85AJ Snovel   Sacramento, CA00:00:00.00 272559  686 Davis Bike Club
8498.70Devin Masterson   Petaluma, CA00:00:00.00 255627  684 All Sport-Team Swift
9522.55Andrew Beem   Weed, CA00:00:00.00 275930  675 NA
DNSMiguel Henderson   Alameda, CA00:00:00.00 255335   Tieni Duro
DNPvincent juarez   00:00:00.00  681 SJBC/SugarCRM
DNPNick Kinney   00:00:00.00  682 All Sport-Team Swift
DNPTrevor Larsen   Moraga, CA00:00:00.00 256917  683 Tieni Duro
DNPZachary Sargent   Santa Rosa, CA00:00:00.00 249319  685 Team Swift
DNPKenny Strickland   San Ramon, CA00:00:00.00 270965  687 InfoVista Cycling Team
DNPDaniel Tisdell   Phoenix, AZ00:00:00.00 188030  674 Team Specialized

Women - Cat 1/2

 Place Points NameCity, StateTime USAC #BibTeam
1rachel heal   00:00:00.00  944 colavita sutter home presented
2418.87Olivia Dillon   Fairfax, CA00:00:00.00 232172  941 Touchstone Climbing
3Marina Koshevaya   00:00:00.00  946 Third Pillar
4454.75Kristina Seley   San Luis Obispo, CA00:00:00.00 223809  935 Unattached
5472.69Sarah Maile   Sacramento, CA00:00:00.00 163025  947 Sacramento Cyclocross
6490.62Kate Ligler   Sausalito, CA00:00:00.00 206217  934 Dolce Vita
7508.56Annie Malouin   Sacramento, CA00:00:00.00 188292  948 Webcor/ Alto Velo
8526.50Anny Henry   Mountain View, CA00:00:00.00 238246  945 Metromint Cycling
9544.44Kimberly Fong (1 - Cat2)   Berkeley, CA00:00:00.00 238713  942 SugarCRM
10562.38Vanessa Drigo   Charlotte, NC00:00:00.00 257356  937 Hopkins Honda
11580.31Elis Bradshaw   Oakland, CA00:00:00.00 208125  939 Metromint Cycling
DNSJane Despas   Menlo Park, CA00:00:00.00 105201   Klein Real Estate
DNSBrooke Miller   Sebastopol, CA00:00:00.00 196453   Team TIBCO
DNPPatricia Ross   Hayward, CA00:00:00.00 196563  933 Touchstone Climbing
DNPMelodie Metzger (Cat2)   Berkeley, CA00:00:00.00 177985  936 PROMAN
DNPLauren Hecht   Mountain View, CA00:00:00.00 261693  938 Webcor/Alto Velo
DNPBrianna Hand   Oakland, CA00:00:00.00 218318  943 NA

Women - Cat 3

 Place Points NameCity, StateTime USAC #BibTeam
1459.17Carrie Edwards   Sausalito, CA00:00:00.00 99021  838 Team Roaring Mouse
2467.79Mary Magnani   San Francisco, CA00:00:00.00 257717  842 Dolce Divas
3476.40Lucia Mokres   Redwood City, CA00:00:00.00 262113  843 SugarCRM
4485.02Marian Jamison   Gloucester, MA00:00:00.00 230034  833 Unattached
5493.64Francesca Barsamian   Oakland, CA00:00:00.00 208596  830 Webcor/Alto Velo
6502.25Cody Graf   Sacramento, CA00:00:00.00 248416  834 Wells Fargo Racing Team
7510.87Bergen Watterson   Durham, NC00:00:00.00 271593  847 Team Roaring Mouse
8519.49Beverly Chaney   Carmel, CA00:00:00.00 221127  836 Team Roaring Mouse
9528.11Ruth Winder   Lafayette, CA00:00:00.00 273081  835 Unattached
10536.72Samantha Michel   Fremont, CA00:00:00.00 271101  832 Webcor/Alto Velo
11Amy Willis   00:00:00.00  848 CRC/Poggio
12553.96Jean Harvey   San Ramon, CA00:00:00.00 129688  829 Synergy-Taleo
13562.57Heather Nielson   Seattle, WA00:00:00.00 237346  844 Colavita/Sutter Home Northern
14571.19Birgit Cory   San Francisco, CA00:00:00.00 224694  837 CRC/Poggio
15579.81April Hamlin   El Dorado Hills, CA00:00:00.00 266244  841 Team Integrate/FFBC p/b Chipot
16588.42amy padula   San Francisco, CA00:00:00.00 255277  845 Touchstone Climbing
DNPBridgette Lery   San Francisco, CA00:00:00.00 121197  831 CRC/Poggio
DNPAnna Fischer   00:00:00.00  839 Davis Bike Club
DNPAnne Fulton   00:00:00.00  840 NA
DNPShari Raymond   Hayward, CA00:00:00.00 200415  846 InfoVista Cycling Team
DNPJennifer Zierke   Millbrae, CA00:00:00.00 275670  849 Colavita/Sutter Home Northern

Women - Cat 4

 Place Points NameCity, StateTime USAC #BibTeam
1Amber Broch   00:00:00.00  581 North Star
2486.28Heather Pryor   Sacramento, CA00:00:00.00 289752  595 Touchstone Climbing
3492.04Julia Violich   San Anselmo, CA00:00:00.00 156830  599 Proman/Tam Cycling
4497.80Susan Lannoo   Auburn, CA00:00:00.00 287329  589 Bella Fiore
5503.56Janet Martinez   Pleasanton, CA00:00:00.00 273913  592 VSRT
6Beate Heckner   00:00:00.00  586 Early Bird Women
7Lauren Liden   00:00:00.00  590 NA
8520.85Shaba Mohseni   San Marcos, CA00:00:00.00 188887  578 SLO/Nexus
9Kameo Campisi   00:00:00.00  584 Precision Bicycles/Team Precis
10UNKNOWN RIDER   00:00:00.00  577 -------
11538.14Alissa Maglaty   Portland00:00:00.00 288500  591 Early Bird Women's Development
12543.90Denise Ramirez   Clovis, CA00:00:00.00 190880  596 Velo Bella-Kona
13Katherine Scott-Smith   00:00:00.00  576 Early Bird Women's Dev
14Rebecca Balon   00:00:00.00  582 Early Bird Women's Development
15Janine Becker   00:00:00.00  583 Forward Motion Race Club
16566.95Lisa Stefke   Berkeley, CA00:00:00.00 255542  579 Left Coast Racing Team
17572.71Melissa Silva   Nevada City, CA00:00:00.00 105702  597 SERT/Sho-Air
18578.48Meg Ornellas   Merced, CA00:00:00.00 255760  594 UCSC Cycling
19584.24Geraldine Cruz   San Francisco, CA00:00:00.00 271623  550 Mellow Motors
20590.00Michelle Nightengale   Modesto, CA00:00:00.00 290262  593 NA
DNSLisa Hern   Los Gatos, CA00:00:00.00 258499   SugarCRM
DNPTamara Presser   San Luis Obispo, CA00:00:00.00 290729  557 SLO/Nexus
DNPMonica Harris   Oakdale, CA00:00:00.00 286874  580 InfoVista
DNPNicole Dolney   00:00:00.00  585 Touchstone Climbing
DNPCarol Hockridge   Granite Bay, CA00:00:00.00 281107  588 Davis Bike Club
DNPCarole Sykes   Tiburon00:00:00.00 270735  598 SugarCRM

Women - Masters - Master - 30-99

 Place Points NameCity, StateTime USAC #BibTeam
1485.10Tracy Barhydt   San Rafael, CA00:00:00.00 221781  891 Norcal Velo Women's cycling te
2494.64Lauraleen Fenech   San Francisco, CA00:00:00.00 224272  895 Bici Sport
3504.17Deborah Levine   Alamo, CA00:00:00.00 189986  886 Synergy-Taleo
4513.71Andi Smith   Menlo Park, CA00:00:00.00 33024  889 Velo Bella
5523.25Linda Elgart   Sacramento, CA00:00:00.00 45299  894 Webcor/Alto Velo
6532.78Lesley Jensen   Benicia, CA00:00:00.00 17778  896 BSA Racing
7542.32Natasha Perry   Santa Cruz, CA00:00:00.00 215338  883 Velo Bella
8551.85Elizabeth Benishin   Palo Alto, CA00:00:00.00 75937  893 Velo Bella-Kona
9561.39Joanne Thompson   Aptos, CA00:00:00.00 47791  888 
10570.93Marsha Kirschbaum   Oakland, CA00:00:00.00 188195  898 Velo Bella - Kona
11580.46Sabine Dukes (1 - Cat3)   Watsonville, CA00:00:00.00 137103  884 Velo Bella
12Martha Bellise   00:00:00.00  885 
DNSAndrea Kirsch   Davis, CA00:00:00.00 93563   Davis Bike Club
DNSCynthia Moore   Roseville, CA00:00:00.00 24891   Rio Strada Racing
DNPLinda Locke   Berkeley, CA00:00:00.00 55240  887 Velo Bella
DNPAndrea Atkins   Oakland, CA00:00:00.00 195672  890 Velo Bella
DNPKatie Behroozi (Cat3)   Menlo Park, CA00:00:00.00 198244  892 PABW Powered by TIBCO

Women - Junior - 15-18

 Place Points NameCity, StateTime USAC #BibTeam
1Margaret Jones   Chico, CA00:00:00.00 286593  695 Chico Corsa Cycling Team
2Kayleen Dobner   Riverpines, CA00:00:00.00 288277  696 Davis Bike Club
DNSKatherine Pollard   Los Angles, CA00:00:00.00 256535   Team Mad Cat
DNSChristina Yglesias   Cupertino, CA00:00:00.00 264750   ProMan Hit Squad

Report missing or incorrect license numbers

Volkswagen
Bonk BreakerUSACDFShimanoSpySierra Nevada
UCI USA Cycling is the official governing body for all disciplines of competitive cycling in the United States. The 501c3, membership-based organization aims both to achieve sustained success in international cycling competition and to grow competitive cycling in America while delivering an exceptional customer experience.
View Children's Online Privacy Protection Policy
US Olympic Committee